DateTimeUTC,F1_A11,F1_S11,BsB_S11,BsG_S11,BsR_S11,BbsB_S11,BbsG_S11,BbsR_S11,BaB_A11,BaG_A11,BaR_A11,Tu_S11,T_S11,Uu_S11,U_S11,P_S11,T1_A11
2021-11-20T21:00:00Z,00000200,21000000,,,,,,,0000.18,-000.26,0000.19,18.6,25.4,,00.0,0631.4,30.8
2021-11-20T21:01:00Z,00000200,21000000,,,,,,,-000.16,-000.20,-000.20,18.5,25.4,,00.0,0631.4,30.8
2021-11-20T21:02:00Z,00000200,21000000,,,,,,,0000.38,0000.79,0000.40,18.5,25.3,,00.0,0631.4,30.8
2021-11-20T21:03:00Z,00000200,61000000,,,,,,,-000.01,0000.04,0000.32,18.5,25.3,,00.0,0631.4,30.8
2021-11-20T21:04:00Z,00000200,41000000,0000.12,0000.29,0000.15,0000.00,-000.22,0000.03,0000.34,0000.35,0000.02,18.5,25.1,,00.0,0632.2,30.8
2021-11-20T21:05:00Z,00000200,01000000,0000.67,0000.52,-000.17,0000.22,-000.10,-000.13,0000.39,0000.18,0000.03,18.5,25.0,,00.0,0632.3,30.8
2021-11-20T21:06:00Z,00000200,01000000,0000.14,-000.36,-000.17,-000.28,-000.16,-000.19,0000.13,-000.31,-000.09,18.5,25.0,,00.0,0632.2,30.8
2021-11-20T21:07:00Z,00000200,01000000,0000.65,0000.20,0000.21,-000.06,-000.27,0000.08,-000.01,0000.31,0000.36,18.6,25.1,,00.0,0632.3,30.8
2021-11-20T21:08:00Z,00000200,01000000,0000.64,-000.07,0000.14,0000.06,-000.04,-000.09,0000.25,0000.74,0000.07,18.7,25.1,,00.0,0632.3,30.8
2021-11-20T21:09:00Z,00000200,01000000,0000.08,0000.01,-000.17,0000.67,-000.15,0000.15,-000.00,-000.48,0000.25,18.7,25.1,,00.0,0632.2,30.8
2021-11-20T21:10:00Z,00000200,01000000,-000.05,0000.13,-000.01,0000.23,-000.29,-000.04,0000.18,-000.23,-000.15,18.8,25.1,,00.0,0632.3,30.8
2021-11-20T21:11:00Z,00000200,01000000,0000.53,0000.26,0000.22,0000.29,0000.09,-000.03,0000.31,0000.44,0000.14,18.8,25.1,,00.0,0632.3,30.8
2021-11-20T21:12:00Z,00000200,01000000,0001.27,0000.13,-000.04,-000.29,-000.33,-000.16,-000.16,0000.13,-000.08,18.9,25.2,,00.0,0632.3,30.8
2021-11-20T21:13:00Z,00000200,01000000,0000.30,0000.40,-000.06,0000.22,0000.03,-000.06,-000.04,0000.10,0000.25,19.0,25.2,,00.0,0632.3,30.9
2021-11-20T21:14:00Z,00000200,01000000,0000.68,0000.03,0000.01,0000.59,-000.30,-000.14,-000.44,-000.20,0000.03,19.0,25.2,,00.0,0632.3,30.9
2021-11-20T21:15:00Z,00000200,01000000,0000.53,0000.11,0000.04,0000.49,0000.13,-000.26,0000.22,-000.00,-000.35,19.0,25.2,,00.0,0632.2,30.9
2021-11-20T21:16:00Z,00000200,01000000,-000.10,0000.37,0000.20,0000.49,-000.16,-000.12,0000.13,0000.10,0000.05,18.9,25.2,,00.0,0632.2,30.8
2021-11-20T21:17:00Z,00000200,01000000,0000.11,0000.08,0000.24,0000.04,0000.13,-000.04,0000.19,0000.30,0000.34,18.8,25.2,,00.0,0632.2,30.8
2021-11-20T21:18:00Z,00000200,01000000,0000.55,0000.10,0000.15,0000.20,-000.06,-000.34,0000.06,-000.11,0000.00,18.8,25.1,,00.0,0632.2,30.8
2021-11-20T21:19:00Z,00000200,01000000,0000.56,0000.12,-000.20,0000.30,0000.10,-000.22,0000.15,-000.14,-000.20,18.8,25.1,,00.0,0632.2,30.8
2021-11-20T21:20:00Z,00000200,01000000,0000.46,0000.43,0000.04,0000.26,-000.11,-000.12,0000.53,0000.46,0000.49,18.8,25.1,,00.0,0632.2,30.8
2021-11-20T21:21:00Z,00000200,01000000,0000.69,0000.35,0000.06,-000.20,0000.17,0000.01,-000.04,0000.27,-000.15,18.8,25.1,,00.0,0632.2,30.8
2021-11-20T21:22:00Z,00000200,01000000,0000.72,0000.65,-000.05,0000.25,-000.11,0000.01,-000.21,0000.09,0000.29,18.9,25.1,,00.0,0632.2,30.8
2021-11-20T21:23:00Z,00000200,01000000,0001.30,-000.15,0000.02,-000.27,0000.27,-000.13,0000.43,0000.12,0000.09,18.9,25.2,,00.0,0632.2,30.8
2021-11-20T21:24:00Z,00000200,01000000,0000.20,0000.04,-000.20,0000.45,-000.21,-000.24,-000.11,0000.26,0000.14,19.0,25.2,,00.0,0632.2,30.9
2021-11-20T21:25:00Z,00000200,01000000,0000.66,0000.30,0000.15,-000.22,0000.17,0000.09,0000.42,0000.20,0000.19,19.1,25.2,,00.0,0632.1,30.9
2021-11-20T21:26:00Z,00000200,01000000,0000.39,-000.06,-000.11,0000.08,-000.04,0000.18,-000.39,-000.34,-000.25,19.1,25.2,,00.0,0632.2,30.9
2021-11-20T21:27:00Z,00000200,01000000,0000.22,0000.21,0000.32,0000.68,-000.03,-000.53,0000.04,-000.07,-000.05,19.1,25.3,,00.0,0632.2,30.9
2021-11-20T21:28:00Z,00000200,01000000,0000.70,0000.22,-000.04,0000.51,0000.12,-000.38,-000.07,-000.11,0000.04,19.1,25.3,,00.0,0632.1,30.9
2021-11-20T21:29:00Z,00000200,01000000,-000.17,0000.46,-000.08,-000.36,-000.04,0000.11,0000.11,-000.08,0000.27,19.0,25.2,,00.0,0632.1,30.8
2021-11-20T21:30:00Z,00000200,01000000,0000.40,0000.34,0000.19,-000.11,0000.33,-000.02,0000.05,0000.10,-000.15,18.9,25.2,,00.0,0632.1,30.8
2021-11-20T21:31:00Z,00000200,01000000,0000.97,0000.16,-000.08,0000.64,0000.14,-000.22,-000.23,0000.28,0000.20,18.8,25.2,,00.0,0632.1,30.8
2021-11-20T21:32:00Z,00000200,01000000,0000.92,0000.46,0000.07,0000.59,0000.26,-000.00,0000.34,0000.27,-000.16,18.8,25.1,,00.0,0632.0,30.8
2021-11-20T21:33:00Z,00000200,01000000,-000.61,0000.17,0000.51,-000.10,-000.02,0000.29,0000.21,0000.15,-000.37,18.7,25.1,,00.0,0632.1,30.8
2021-11-20T21:34:00Z,00000200,01000000,0000.75,-000.45,0000.06,-000.33,-000.17,0000.09,0000.31,-000.08,0000.72,18.7,25.1,,00.0,0632.0,30.8
2021-11-20T21:35:00Z,00000200,01000000,0000.49,0000.36,0000.16,0000.15,-000.46,-000.17,0000.12,0000.07,0000.00,18.7,25.1,,00.0,0632.0,30.8
2021-11-20T21:36:00Z,00000200,01000000,0000.19,0000.33,0000.22,0000.54,-000.23,-000.58,0000.03,0000.28,-000.06,18.8,25.1,,00.0,0632.0,30.8
2021-11-20T21:37:00Z,00000200,01000000,0000.30,0000.16,-000.13,0000.59,-000.25,-000.09,0000.40,0000.31,0000.50,18.8,25.1,,00.0,0632.0,30.8
2021-11-20T21:38:00Z,00000200,01000000,0000.35,0000.37,-000.08,-000.38,-000.17,-000.08,-000.22,-000.16,0000.03,18.9,25.1,,00.0,0632.0,30.8
2021-11-20T21:39:00Z,00000200,01000000,-000.05,0000.31,0000.12,-000.17,0000.02,-000.10,0000.45,0000.21,0000.25,18.9,25.2,,00.0,0632.0,30.8
2021-11-20T21:40:00Z,00000200,01000000,-000.09,0000.31,0000.34,0000.25,-000.00,-000.16,-000.42,-000.12,-000.11,19.0,25.2,,00.0,0631.9,30.9
2021-11-20T21:41:00Z,00000200,01000000,0000.79,0000.45,0000.13,-000.28,-000.06,0000.06,0000.08,-000.31,0000.00,19.0,25.2,,00.0,0631.9,30.9
2021-11-20T21:42:00Z,00000200,01000000,0000.34,0000.02,-000.05,-000.05,0000.16,-000.08,0000.08,0000.03,0000.05,19.0,25.2,,00.0,0631.9,30.9
2021-11-20T21:43:00Z,00000200,01000000,0000.36,0000.11,0000.19,0000.56,-000.11,-000.18,0000.29,-000.07,-000.03,19.0,25.2,,00.0,0631.8,30.8
2021-11-20T21:44:00Z,00000200,01000000,0000.28,0000.12,0000.29,0000.65,0000.35,-000.13,-000.17,0000.22,-000.11,18.9,25.2,,00.0,0631.8,30.8
2021-11-20T21:45:00Z,00000200,01000000,0000.47,0000.26,0000.03,0000.17,-000.33,-000.09,-000.34,0000.09,0000.11,18.8,25.1,,00.0,0631.8,30.8
2021-11-20T21:46:00Z,00000200,01000000,0000.23,0000.53,0000.26,-000.30,-000.09,-000.11,0000.38,0000.01,-000.09,18.8,25.1,,00.0,0631.7,30.8
2021-11-20T21:47:00Z,00000200,01000000,0000.52,0000.14,-000.08,0000.03,-000.36,-000.30,0000.08,-000.02,-000.21,18.7,25.1,,00.0,0631.7,30.8
2021-11-20T21:48:00Z,00000200,01000000,0000.69,0000.13,0000.04,0000.72,0000.06,-000.37,0000.14,0000.34,0000.36,18.6,25.0,,00.0,0631.7,30.8
2021-11-20T21:49:00Z,00000200,01000000,-000.73,0000.04,0000.41,0000.35,-000.06,-000.31,0000.28,-000.03,0000.34,18.6,25.0,,00.0,0631.6,30.8
2021-11-20T21:50:00Z,00000200,01000000,0000.50,0000.17,0000.38,0000.18,0000.15,-000.03,-000.01,-000.15,0000.15,18.6,25.0,,00.0,0631.6,30.8
2021-11-20T21:51:00Z,00000200,01000000,0000.56,0000.28,0000.02,0000.48,0000.20,-000.06,-000.12,0000.54,-000.25,18.7,25.0,,00.0,0631.6,30.8
2021-11-20T21:52:00Z,00000200,01000000,0000.88,0000.04,0000.05,-000.21,-000.19,0000.05,0000.48,0000.47,0000.25,18.7,25.0,,00.0,0631.6,30.8
2021-11-20T21:53:00Z,00000200,01000000,0000.59,0000.16,0000.22,-000.22,-000.18,0000.08,0000.10,0000.06,0000.13,18.8,25.0,,00.0,0631.7,30.8
2021-11-20T21:54:00Z,00000200,01000000,0000.38,0000.45,0000.02,0000.28,-000.45,-000.30,0000.10,-000.22,0000.22,18.8,25.1,,00.0,0631.6,30.8
2021-11-20T21:55:00Z,00000200,01000000,-000.06,0000.16,0000.18,-000.07,0000.17,0000.07,0000.07,0000.38,-000.06,18.9,25.1,,00.0,0631.6,30.8
2021-11-20T21:56:00Z,00000200,01000000,0000.97,0000.09,0000.06,-000.60,-000.29,-000.19,-000.15,-000.26,0000.19,18.9,25.1,,00.0,0631.6,30.8
2021-11-20T21:57:00Z,00000200,41000000,,,,,,,-000.11,-000.12,-000.25,19.0,25.1,,00.0,0631.7,30.9
2021-11-20T21:58:00Z,00000200,61000000,,,,,,,0000.17,0000.14,-000.04,18.8,25.3,,00.0,0630.7,30.9
2021-11-20T21:59:00Z,00000200,21000000,,,,,,,-000.16,-000.09,0000.05,18.8,25.4,,00.0,0630.7,30.9
